Weather History for NW Arkansas Airport, AR

Change the Weather History Date:

Friday, September 13, 2013

  Actual Average Record
Temperature  
Mean Temperature 72 °F -  
Max Temperature 84 °F - - ()
Min Temperature 63 °F - - ()
Cooling Degree Days 8    
Growing Degree Days 22 (Base 50)    
Moisture  
Dew Point 52 °F    
Average Humidity 48    
Maximum Humidity 81    
Minimum Humidity 31    
Precipitation  
Precipitation 0.00 in - - ()
Sea Level Pressure  
Sea Level Pressure 30.06 in    
Wind  
Wind Speed 8 mph (ENE)    
Max Wind Speed 14 mph    
Max Gust Speed 18 mph    
Visibility 7 miles    
Events      
T = Trace of Precipitation, MM = Missing Value Source: NWS Daily Summary

Daily Weather History Graph

Daily Weather History Graph

Search for Another Location

Airport:

Trip Planner

Search our weather history database for the weather conditions in past years. The results will help you decide how hot, cold, wet, or windy it might be!

Date:

Astronomy

Sep. 13, 2013 Rise Set
Actual Time 6:58 AM CDT 7:27 PM CDT
Civil Twilight 6:32 AM CDT 7:52 PM CDT
Nautical Twilight 6:02 AM CDT 8:23 PM CDT
Astronomical Twilight 5:31 AM CDT 8:54 PM CDT
Moon 3:10 PM CDT (9/13) 12:36 AM CDT (9/13)
Length of Visible Light 13h 20m
Length of Day
12h 28m
First Quarter, 61% of the Moon is Illuminated
Sep 13
First Quarter
Sep 19
Full
Sep 26
Last Quarter
Oct 4
New
Oct 11
First Quarter

Hourly Weather History & Observations

Time (CDT) Temp. Dew Point Humidity Pressure Visibility Wind Dir Wind Speed Gust Speed Precip Events Conditions
12:53 AM 72.0 °F 66.0 °F 81% 30.02 in 10.0 mi North 5.8 mph - N/A   Clear
1:53 AM 72.0 °F 66.0 °F 81% 30.02 in 10.0 mi NNE 4.6 mph - N/A   Overcast
2:53 AM 71.1 °F 64.0 °F 78% 30.02 in 10.0 mi NE 5.8 mph - N/A   Partly Cloudy
3:53 AM 70.0 °F 63.0 °F 78% 30.02 in 10.0 mi NE 8.1 mph - N/A   Clear
4:53 AM 70.0 °F 60.1 °F 71% 30.03 in 10.0 mi NE 6.9 mph - N/A   Clear
5:53 AM 68.0 °F 57.9 °F 70% 30.04 in 10.0 mi NE 6.9 mph - N/A   Clear
6:53 AM 66.9 °F 55.9 °F 68% 30.06 in 10.0 mi ENE 5.8 mph - N/A   Mostly Cloudy
7:53 AM 66.9 °F 54.0 °F 63% 30.07 in 7.0 mi NE 4.6 mph - N/A   Clear
8:51 AM 71.6 °F 51.8 °F 50% 30.11 in 3.0 mi ENE 12.7 mph - N/A   Haze
8:53 AM 70.0 °F 51.1 °F 51% 30.08 in 3.0 mi East 13.8 mph - N/A   Haze
9:06 AM 71.6 °F 50.0 °F 46% 30.11 in 1.8 mi East 11.5 mph - N/A   Haze
9:13 AM 71.6 °F 50.0 °F 46% 30.11 in 3.0 mi East 12.7 mph - N/A   Haze
9:43 AM 73.4 °F 50.0 °F 44% 30.11 in 2.0 mi ENE 11.5 mph - N/A   Haze
9:53 AM 73.0 °F 48.9 °F 42% 30.08 in 3.0 mi East 9.2 mph - N/A   Haze
10:06 AM 73.4 °F 48.2 °F 41% 30.12 in 1.8 mi East 10.4 mph 18.4 mph N/A   Haze
10:24 AM 73.4 °F 48.2 °F 41% 30.12 in 3.0 mi East 11.5 mph - N/A   Haze
10:34 AM 75.2 °F 48.2 °F 38% 30.12 in 1.8 mi East 11.5 mph - N/A   Haze
10:40 AM 75.2 °F 48.2 °F 38% 30.12 in 3.0 mi ENE 11.5 mph - N/A   Haze
10:53 AM 75.0 °F 50.0 °F 41% 30.08 in 7.0 mi ENE 11.5 mph - N/A   Partly Cloudy
11:53 AM 78.1 °F 51.1 °F 39% 30.07 in 10.0 mi ENE 9.2 mph - N/A   Clear
12:11 PM 78.8 °F 50.0 °F 36% 30.10 in 2.5 mi East 9.2 mph - N/A   Haze
12:21 PM 78.8 °F 50.0 °F 36% 30.10 in 4.0 mi East 10.4 mph 16.1 mph N/A   Haze
12:28 PM 78.8 °F 48.2 °F 34% 30.10 in 7.0 mi Variable 3.5 mph - N/A   Partly Cloudy
12:53 PM 80.1 °F 48.9 °F 34% 30.05 in 10.0 mi East 6.9 mph - N/A   Clear
1:04 PM 80.6 °F 50.0 °F 34% 30.08 in 2.0 mi Variable 5.8 mph - N/A   Haze
1:11 PM 80.6 °F 50.0 °F 34% 30.08 in 1.2 mi ENE 4.6 mph - N/A   Haze
1:14 PM 80.6 °F 50.0 °F 34% 30.08 in 3.0 mi Calm Calm - N/A   Haze
1:26 PM 80.6 °F 48.2 °F 32% 30.08 in 9.0 mi NE 8.1 mph - N/A   Partly Cloudy
1:53 PM 81.0 °F 50.0 °F 34% 30.02 in 3.0 mi NE 8.1 mph - N/A   Haze
2:53 PM 82.9 °F 50.0 °F 32% 30.01 in 10.0 mi North 9.2 mph - N/A   Clear
3:09 PM 82.4 °F 51.8 °F 35% 30.05 in 3.0 mi North 10.4 mph - N/A   Haze
3:53 PM 82.9 °F 51.1 °F 33% 29.99 in 10.0 mi ENE 5.8 mph - N/A   Clear
4:53 PM 82.9 °F 48.9 °F 31% 29.97 in 10.0 mi NNE 10.4 mph - N/A   Clear
5:53 PM 80.1 °F 48.0 °F 32% 29.98 in 10.0 mi NNE 11.5 mph - N/A   Clear
6:53 PM 73.9 °F 48.0 °F 40% 29.99 in 10.0 mi NE 10.4 mph - N/A   Clear
7:53 PM 69.1 °F 50.0 °F 51% 30.00 in 10.0 mi NNE 3.5 mph - N/A   Clear
8:53 PM 66.9 °F 51.1 °F 57% 30.02 in 10.0 mi ENE 4.6 mph - N/A   Clear
9:53 PM 64.0 °F 52.0 °F 65% 30.03 in 10.0 mi NE 4.6 mph - N/A   Clear
10:53 PM 63.0 °F 51.1 °F 65% 30.03 in 10.0 mi NE 4.6 mph - N/A   Clear
11:53 PM 63.0 °F 51.1 °F 65% 30.01 in 10.0 mi East 4.6 mph - N/A   Clear